Waarnemingen

Advertentie
Mijn weer
Katterjakk A, Zweden (2019): temperatuur & dauwpunt: 19.05.2018 12:00:00 - 25.05.2018 12:00:00 (CEST)Katterjakk A, Zweden (2019): windsnelheid & windstoten: 19.05.2018 12:00:00 - 25.05.2018 12:00:00 (CEST)Katterjakk A, Zweden (2019): windrichting: 19.05.2018 12:00:00 - 25.05.2018 12:00:00 (CEST)Katterjakk A, Zweden (2019): luchtdruk: 19.05.2018 12:00:00 - 25.05.2018 12:00:00 (CEST)Katterjakk A, Zweden (2019): zicht: 19.05.2018 12:00:00 - 25.05.2018 12:00:00 (CEST)Katterjakk A, Zweden (2019): neerslag: 19.05.2018 12:00:00 - 25.05.2018 12:00:00 (CEST)
Datum & Tijd tt [°C] td [°C] ff [km/u] ff [kn] fx [km/u] fx [kn] dd ppp [hPa] vv [km] rr [mm]
25.05.2018 12:00:00 8,6 2,6 14 7 29 16 W 1024,0 33 0,0
25.05.2018 11:00:00 8,9 2,9 11 6 29 16 WNW 1024,0 34 0,0
25.05.2018 10:00:00 7,4 2,1 12 6 26 14 NW 1024,2 50 0,0
25.05.2018 09:00:00 8,0 0,7 12 6 19 10 WZW 1023,8 46 0,0
25.05.2018 08:00:00 7,0 -3,3 9 5 19 10 W 1024,2 50 0,0
25.05.2018 07:00:00 4,9 -1,8 4 2 9 5 NW 1024,7 50 0,0
25.05.2018 06:00:00 4,6 -2,5 5 3 10 6 N 1025,1 50 0,0
25.05.2018 05:00:00 4,5 -3,0 6 3 10 6 ZZW 1024,9 50 0,0
25.05.2018 04:00:00 3,3 -3,1 4 2 12 7 ZZW 1025,3 50 0,0
25.05.2018 03:00:00 4,4 -3,4 5 3 18 10 Z 1025,1 50 0,0
25.05.2018 02:00:00 3,8 -4,9 11 6 18 10 ZZW 1025,5 50 0,0
25.05.2018 01:00:00 3,3 -3,1 3 2 14 7 N 1025,9 50 0,0
25.05.2018 00:00:00 3,9 -2,9 6 3 13 7 WZW 1026,0 50 0,0
24.05.2018 23:00:00 3,2 -3,2 6 3 17 9 ZW 1026,1 50 0,0
24.05.2018 22:00:00 5,8 -3,6 6 4 18 10 WNW 1025,8 50 0,0
24.05.2018 21:00:00 6,7 -3,0 13 7 18 10 W 1025,6 50 0,0
24.05.2018 20:00:00 6,9 -2,8 8 5 18 10 WZW 1025,8 50 0,0
24.05.2018 19:00:00 7,7 -2,9 12 6 18 10 ZW 1025,6 50 0,0
24.05.2018 18:00:00 8,0 -2,9 10 5 20 11 WNW 1025,6 50 0,0
24.05.2018 17:00:00 8,0 -3,5 11 6 25 14 NW 1025,7 50 0,0
24.05.2018 16:00:00 8,3 -3,2 12 6 28 15 ZW 1025,7 50 0,0
24.05.2018 15:00:00 8,9 -4,3 14 8 28 15 WZW 1026,2 50 0,0
24.05.2018 14:00:00 8,2 -3,3 15 8 30 16 WNW 1026,9 50 0,0
24.05.2018 13:00:00 9,4 -3,5 13 7 30 16 ZW 1026,3 50 0,0
24.05.2018 12:00:00 8,9 -4,3 18 10 29 16 WNW 1026,6 50 0,0
24.05.2018 11:00:00 8,5 -4,0 16 9 28 15 W 1026,7 50 0,0
24.05.2018 10:00:00 7,1 -1,8 11 6 24 13 ZZW 1027,3 50 0,0
24.05.2018 09:00:00 4,9 -1,8 13 7 41 22 Z 1028,4 50 0,0
24.05.2018 08:00:00 4,2 -1,8 18 10 41 22 W 1029,0 25 0,1
24.05.2018 07:00:00 3,1 -2,4 4 2 32 18 WNW 1029,3 50 0,0
24.05.2018 06:00:00 2,4 -2,7 9 5 21 11 ZZW 1029,4 50 0,0
24.05.2018 05:00:00 1,7 -2,4 4 2 21 11 ONO 1029,6 50 0,0
24.05.2018 04:00:00 0,8 -2,3 0 0 16 9 N 1030,2 50 0,0
24.05.2018 03:00:00 1,3 -2,6 5 3 16 9 Z 1030,0 50 0,0
24.05.2018 02:00:00 1,0 -2,9 4 2 19 11 ZZW 1030,6 50 0,0
24.05.2018 01:00:00 0,8 -3,3 3 2 19 11 OZO 1030,6 50 0,0
24.05.2018 00:00:00 1,4 -3,3 15 8 18 10 WZW 1030,9 50 0,0
23.05.2018 23:00:00 1,0 -3,5 11 6 16 8 WZW 1030,9 50 0,0
23.05.2018 22:00:00 1,6 -3,1 8 4 20 11 WZW 1030,5 50 0,0
23.05.2018 21:00:00 4,5 -4,0 9 5 20 11 NW 1030,0 50 0,0
23.05.2018 20:00:00 4,9 -3,9 11 6 23 12 W 1029,9 47 0,0
23.05.2018 19:00:00 4,1 -3,2 10 5 23 12 W 1030,3 50 0,0
23.05.2018 18:00:00 4,6 -2,5 14 8 26 14 NW 1030,2 50 0,0
23.05.2018 17:00:00 4,4 -2,5 13 7 32 17 WNW 1030,4 50 0,0
23.05.2018 16:00:00 4,0 -4,0 17 9 32 17 WNW 1030,4 50 0,0
23.05.2018 15:00:00 4,1 -4,1 18 10 31 17 WNW 1029,9 43 0,0
23.05.2018 14:00:00 4,4 -3,1 20 11 31 17 WNW 1029,4 47 0,0
23.05.2018 13:00:00 4,0 -4,0 14 8 31 17 NW 1029,0 50 0,0
23.05.2018 12:00:00 5,0 -3,1 14 8 31 17 WNW 1028,4 40 0,0
23.05.2018 11:00:00 3,1 -3,7 12 6 31 17 WNW 1028,7 47 0,0
23.05.2018 10:00:00 3,2 -3,2 18 10 34 18 WNW 1028,6 49 0,0
23.05.2018 09:00:00 2,3 -2,4 19 10 34 18 WNW 1028,2 40 0,0
23.05.2018 08:00:00 2,4 -2,7 21 11 32 18 WNW 1027,6 43 0,0
23.05.2018 07:00:00 1,6 -2,7 18 10 31 17 W 1027,6 50 0,0
23.05.2018 06:00:00 0,5 -0,5 14 7 36 19 WNW 1027,5 3,6 0,3
23.05.2018 05:00:00 1,0 -0,6 20 11 36 19 WNW 1026,7 4,5 0,5
23.05.2018 04:00:00 1,1 -0,2 16 9 35 19 W 1026,0 5 0,2
23.05.2018 03:00:00 1,4 -1,0 19 10 35 19 W 1025,7 49 0,1
23.05.2018 02:00:00 1,6 -1,8 23 13 35 19 W 1025,3 45 0,0
23.05.2018 01:00:00 1,6 -2,4 15 8 34 19 WZW 1024,9 50 0,0
23.05.2018 00:00:00 1,6 -1,3 22 12 41 22 W 1024,6 44 0,0
22.05.2018 23:00:00 2,2 0,1 19 10 48 26 W 1024,6 45 0,0
22.05.2018 22:00:00 2,3 0,5 28 15 48 26 W 1023,9 9 0,9
22.05.2018 21:00:00 2,7 1,4 30 16 44 24 WNW 1023,5 3,9 0,6
22.05.2018 20:00:00 3,2 1,2 29 15 42 23 WNW 1023,3 36 0,0
22.05.2018 19:00:00 3,4 1,1 19 10 37 20 WNW 1023,4 34 0,0
22.05.2018 18:00:00 4,1 0,4 22 12 42 23 WNW 1022,9 50 0,0
22.05.2018 17:00:00 4,9 0,3 24 13 42 23 WNW 1022,8 50 0,0
22.05.2018 16:00:00 3,9 1,1 14 7 35 19 WNW 1022,9 41 0,2
22.05.2018 15:00:00 3,3 2,1 16 9 34 18 WNW 1023,1 10 0,2
22.05.2018 14:00:00 2,8 1,8 23 12 34 18 WNW 1022,8 6 1,0
22.05.2018 13:00:00 2,0 1,3 18 10 51 28 WNW 1022,8 4,8 1,5
22.05.2018 12:00:00 3,5 2,9 27 14 51 28 WNW 1020,9 9 0,1
22.05.2018 11:00:00 7,4 4,4 8 4 22 12 ZZW 1018,5 50 0,0
22.05.2018 10:00:00 6,1 3,8 10 6 16 9 NNW 1018,9 50 0,0
22.05.2018 09:00:00 5,6 3,6 2 1 18 10 ZZO 1019,0 50 0,0
22.05.2018 08:00:00 3,5 3,1 6 3 18 10 NNO 1020,0 41 0,0
22.05.2018 07:00:00 3,2 3,1 4 2 10 5 NW 1020,5 0,5 0,0
22.05.2018 06:00:00 3,6 3,5 3 1 9 5 ZZO 1020,2 50 0,0
22.05.2018 05:00:00 2,8 2,7 4 2 16 8 WZW 1021,1 48 0,0
22.05.2018 04:00:00 2,7 2,6 3 2 16 8 Z 1021,6 43 0,0
22.05.2018 03:00:00 2,4 2,3 10 5 14 7 Z 1021,9 3,9 0,0
22.05.2018 02:00:00 2,5 2,4 3 1 8 4 Z 1022,3 0,3 0,0
22.05.2018 01:00:00 2,9 2,8 5 3 9 5 ZZO 1022,3 7 0,0
22.05.2018 00:00:00 3,0 2,6 3 2 9 5 ZW 1022,4 12 0,0
21.05.2018 23:00:00 3,3 2,7 4 2 7 4 Z 1022,2 29 0,0
21.05.2018 22:00:00 3,7 3,1 4 2 15 8 Z 1022,4 16 0,0
21.05.2018 21:00:00 4,4 3,7 5 3 15 8 NW 1022,2 33 0,0
21.05.2018 20:00:00 4,8 3,5 7 4 22 12 W 1022,0 50 0,0
21.05.2018 19:00:00 5,4 3,4 8 5 22 12 WZW 1022,2 43 0,0
21.05.2018 18:00:00 5,5 3,7 16 9 28 15 W 1022,2 50 0,0
21.05.2018 17:00:00 5,3 4,6 11 6 28 15 W 1021,7 50 0,0
21.05.2018 16:00:00 5,0 4,1 11 6 29 16 W 1021,8 49 0,0
21.05.2018 15:00:00 5,3 4,0 17 9 45 24 W 1020,9 44 0,0
21.05.2018 14:00:00 5,0 4,0 16 9 45 24 WZW 1020,5 13 1,1
21.05.2018 13:00:00 4,9 4,2 27 15 42 23 W 1019,5 5 2,0
21.05.2018 12:00:00 4,9 4,5 18 10 36 19 W 1018,1 18 0,8
21.05.2018 11:00:00 5,1 4,7 23 12 36 19 W 1017,2 11 0,9
21.05.2018 10:00:00 5,2 4,9 23 13 34 19 W 1015,9 8 0,7
21.05.2018 09:00:00 5,4 5,0 9 5 23 12 W 1015,2 10 0,2
21.05.2018 08:00:00 5,4 5,1 16 8 23 12 W 1014,1 8 0,1
21.05.2018 07:00:00 5,5 5,1 10 5 18 10 W 1013,7 7 0,0
21.05.2018 06:00:00 5,5 4,9 11 6 21 11 ZW 1013,4 12 0,0
21.05.2018 05:00:00 5,6 4,6 14 8 26 14 ZW 1012,7 46 0,5
21.05.2018 04:00:00 5,5 4,6 19 10 26 14 WNW 1012,8 15 1,2
21.05.2018 03:00:00 5,8 4,4 16 8 26 14 W 1012,3 28 1,1
21.05.2018 02:00:00 4,9 4,0 5 3 15 8 ZZW 1012,2 12 0,9
21.05.2018 01:00:00 4,4 4,1 3 2 24 13 Z 1012,7 10 0,6
21.05.2018 00:00:00 5,5 4,8 6 3 24 13 NO 1012,4 33 0,3
20.05.2018 23:00:00 6,1 4,6 13 7 27 14 WZW 1012,7 22 0,8
20.05.2018 22:00:00 6,4 3,4 17 9 43 23 WZW 1012,2 19 0,0
20.05.2018 21:00:00 8,0 2,2 15 8 43 23 ZW 1011,1 50 0,0
20.05.2018 20:00:00 8,6 1,5 25 14 51 27 ZW 1010,9 50 0,0
20.05.2018 19:00:00 8,0 2,5 23 13 51 27 WZW 1011,2 50 0,0
20.05.2018 18:00:00 9,1 2,2 26 14 44 24 W 1011,3 50 0,0
20.05.2018 17:00:00 7,9 2,8 19 10 34 18 WZW 1011,9 46 0,0
20.05.2018 16:00:00 8,2 2,0 18 10 43 23 W 1011,7 46 0,0
20.05.2018 15:00:00 7,9 1,9 18 10 45 24 WNW 1012,2 50 0,0
20.05.2018 14:00:00 9,6 -0,9 26 14 58 31 WZW 1011,8 50 0,0
20.05.2018 13:00:00 9,5 -1,6 31 17 58 31 WZW 1011,6 50 0,0
20.05.2018 12:00:00 6,4 -0,8 18 10 35 19 WZW 1013,2 35 0,0
20.05.2018 11:00:00 3,9 -0,5 5 3 14 8 NNO 1014,4 26 0,0
20.05.2018 10:00:00 2,2 -1,4 11 6 14 8 NNO 1015,4 21 0,0
20.05.2018 09:00:00 1,5 -1,1 3 2 16 9 NO 1016,5 13 0,0
20.05.2018 08:00:00 1,8 -1,1 7 4 16 9 ONO 1016,4 11 0,0
20.05.2018 07:00:00 1,8 -1,1 8 5 16 9 ONO 1016,5 17 0,0
20.05.2018 06:00:00 1,7 -2,1 6 3 16 9 ZW 1017,0 25 0,0
20.05.2018 05:00:00 1,3 -1,4 3 1 16 8 OZO 1017,7 18 0,0
20.05.2018 04:00:00 0,9 -1,8 0 0 16 9 N 1018,0 17 0,0
20.05.2018 03:00:00 1,0 -1,4 10 5 16 9 W 1018,5 16 0,0
20.05.2018 02:00:00 0,3 -1,6 8 4 13 7 WZW 1018,5 16 0,0
20.05.2018 01:00:00 0,1 -1,8 6 4 15 8 ZW 1018,5 15 0,0
20.05.2018 00:00:00 0,7 -1,9 9 5 32 17 W 1018,7 16 0,0
19.05.2018 23:00:00 1,9 -1,7 9 5 35 19 W 1018,6 18 0,0
19.05.2018 22:00:00 2,1 -1,5 21 11 42 23 W 1018,3 16 0,0
19.05.2018 21:00:00 2,7 -1,5 24 13 49 26 WNW 1017,8 17 0,0
19.05.2018 20:00:00 3,2 -1,9 27 15 51 27 WNW 1017,3 19 0,0
19.05.2018 19:00:00 3,6 -1,0 31 17 60 33 W 1017,1 19 0,0
19.05.2018 18:00:00 3,1 -0,7 33 18 60 33 WNW 1017,0 19 0,0
19.05.2018 17:00:00 3,3 0,2 41 22 57 31 WNW 1016,4 32 0,0
19.05.2018 16:00:00 4,4 0,5 30 16 49 26 WNW 1015,6 41 0,0
19.05.2018 15:00:00 6,1 -0,4 29 15 43 23 WNW 1014,5 50 0,1
19.05.2018 14:00:00 4,8 2,7 22 12 47 26 W 1014,4 7 1,4
19.05.2018 13:00:00 4,2 2,9 32 18 47 26 WNW 1014,1 4,6 0,5
19.05.2018 12:00:00 6,2 1,1 21 12 53 29 WNW 1012,6 40 0,0

tt = temperatuur
td = dauwpunt
ff = windsnelheid
fx = windstoten
dd = windrichting
ppp = luchtdruk
vv = zicht
rr = neerslag

Weerstations in de omgeving